Location: Tyumen
(57.1527°N, 65.5323°E)
Time: 03:14:35
(UTC+05:00)

ISS - Pass Details

Date: 01 November 2024
Orbit: 406 x 419 km, 51.6° (Epoch: 08 November)

Event Time Altitude Azimuth Distance (km) Brightness Sun altitude
Exits shadow 04:40:18 13° 134° (SE) 1,302 -0.9 -25.8°
Drops below altitude 10° 04:40:46 10° 130° (SE) 1,469 -0.6 -25.7°
Sets 04:43:01 0° 118° (ESE) 2,327 0.7 -25.4°
